Wind_Speed
17 16 17 17 16 15 14 13 11 10 8 7 6 5 7 10 9 8 7 7 8 9 9 10 11 12 12 12 10 10 11 11 11 11 12 12 14 16 17 19 20 22 22 23 23
22 21 18 20 20 19 19 17 16 15 13 11 10 8 7 6 8 10 9 9 8 8 9 10 10 12 12 11 11 11 10 11 12 13 13 14 15 15 16 17 19 19 21 21 22
27 26 25 23 23 24 23 22 21 20 19 17 16 14 12 10 8 8 9 10 10 10 9 10 10 12 14 12 12 11 12 12 10 10 12 13 15 15 17 19 18 19 20 20 21
31 30 29 29 28 28 28 26 26 25 24 23 21 19 18 16 15 12 13 12 12 12 12 12 13 12 13 14 13 14 14 14 15 16 16 16 17 17 19 19 18 19 21 23 25
34 33 32 33 33 32 31 31 29 30 29 28 26 25 24 22 20 19 18 17 17 16 16 15 14 15 16 15 16 16 17 19 20 20 19 19 20 22 21 22 22 24 26 27 28
39 37 36 35 35 35 35 34 34 34 33 33 31 30 29 28 26 26 24 22 22 21 21 20 19 18 17 18 19 19 21 22 24 24 22 19 20 22 23 23 25 25 28 31 34
41 41 40 39 40 39 40 38 37 37 37 37 36 35 34 33 32 32 30 28 27 26 25 25 25 24 22 22 21 22 23 26 26 28 26 20 21 25 26 22 24 24 27 30 33
43 43 42 41 41 42 42 42 42 41 41 40 40 39 37 36 37 35 34 34 34 33 31 30 29 30 29 27 26 27 25 26 29 31 33 28 17 29 32 28 27 29 32 32 31
41 42 42 42 42 43 44 43 44 44 44 44 44 44 41 39 39 38 37 37 38 38 38 37 36 33 33 33 33 31 33 31 32 34 36 37 27 29 31 33 31 33 36 36 32
43 42 43 42 42 41 42 42 43 44 45 45 46 47 44 43 42 41 39 39 40 40 40 41 41 38 35 37 37 38 39 38 37 41 39 41 35 30 33 34 32 33 40 38 38
47 45 45 44 43 43 43 44 44 45 43 44 46 45 46 45 46 46 44 42 41 41 40 42 43 38 39 41 41 40 42 44 42 44 48 45 42 38 35 35 33 38 36 42 43
50 50 51 50 48 48 47 48 48 49 47 47 48 48 44 44 45 45 45 46 43 42 42 43 42 39 41 41 41 42 46 46 47 49 53 51 48 43 40 36 37 33 39 40 43
53 52 52 53 52 51 50 50 51 52 55 51 50 49 45 44 43 40 42 44 43 44 44 46 43 42 41 41 43 47 48 50 53 54 55 58 56 49 41 40 36 37 36 40 42
53 56 54 54 54 53 53 52 52 54 59 60 52 49 45 43 44 40 39 41 43 43 45 46 42 41 43 44 47 52 49 53 55 58 60 57 62 59 51 44 45 39 37 38 45
52 55 58 58 56 55 55 55 54 52 64 64 61 47 42 41 43 39 40 40 41 42 44 43 43 45 46 47 49 53 52 53 56 59 65 59 63 65 59 53 48 43 42 43 47
55 56 56 58 58 58 56 57 57 58 71 65 62 54 46 43 43 43 41 42 44 45 46 45 47 48 48 49 50 52 53 55 59 60 68 61 63 71 62 58 52 45 46 47 52
57 56 57 58 56 57 59 58 60 70 70 65 61 58 54 48 47 46 46 46 45 46 46 46 48 50 49 50 51 52 53 59 65 64 70 68 72 64 62 58 50 47 51 51 52
60 58 57 58 58 58 59 61 68 71 66 64 63 61 59 55 52 50 50 50 48 48 50 51 53 50 53 52 54 55 53 52 61 66 75 74 68 62 62 58 49 48 49 48 48
65 60 60 61 62 62 62 67 69 67 67 65 64 63 62 59 55 54 54 55 52 49 51 52 57 55 53 55 57 60 62 59 62 67 70 67 66 67 65 59 54 49 46 44 51
72 73 70 64 65 66 68 72 72 68 67 63 63 63 62 58 59 57 56 57 54 51 48 53 56 55 55 57 57 55 56 59 59 62 67 72 71 74 73 63 56 54 51 49 52
78 79 74 73 75 74 77 72 70 70 67 67 68 65 63 61 60 61 61 60 57 52 55 58 57 60 60 62 61 59 62 62 63 69 69 66 74 67 63 57 58 58 53 51 57
86 78 80 75 63 70 76 77 71 70 67 70 71 69 65 61 61 64 65 62 59 56 57 58 61 64 59 61 63 65 65 67 69 68 69 73 72 55 59 54 55 56 54 57 60
77 74 75 71 76 80 70 71 78 82 77 73 72 71 72 74 73 70 64 60 59 62 63 64 66 65 65 68 67 64 62 63 65 67 74 75 74 64 64 59 55 59 55 58 62
69 71 65 74 76 77 73 64 69 72 74 76 77 74 72 71 72 75 73 71 66 63 65 66 69 68 71 69 69 71 69 64 66 77 81 82 79 67 59 59 56 60 55 58 61
69 73 81 77 85 80 73 77 69 71 76 71 75 75 73 73 75 75 68 65 64 65 67 68 74 77 79 76 73 75 71 70 73 76 84 80 78 71 61 60 56 62 58 62 63
77 75 82 84 77 79 78 78 80 78 78 77 78 72 69 75 74 76 71 73 76 74 72 75 82 82 82 77 77 76 76 73 73 75 76 74 78 69 62 65 64 59 61 66 61
84 85 82 73 81 88 87 91 88 73 83 85 80 76 81 78 72 75 77 77 77 78 76 76 77 75 80 76 81 81 78 67 67 75 72 81 76 71 69 66 62 60 62 63 62
Wind_Direction
244 248 247 246 253 259 259 260 261 260 259 273 298 318 341 351 352 352 354 356 359 5 9 6 0 357 358 351 335 314 304 307 312 314 311 312 310 304 296 291 287 286 284 283 284
242 244 247 246 248 256 261 261 261 265 264 261 265 278 291 310 327 330 329 322 325 339 346 355 356 350 347 351 348 337 325 317 317 317 316 319 317 315 311 300 293 292 288 286 280
245 245 244 243 245 250 255 260 261 262 264 263 264 265 266 271 279 290 304 309 310 313 323 328 340 345 339 337 330 332 332 332 336 334 331 330 325 319 316 311 306 294 291 288 283
247 246 246 248 248 249 252 254 259 261 259 261 259 260 263 263 264 275 280 284 291 297 304 310 317 324 330 331 328 318 319 322 326 325 326 328 324 326 322 317 311 304 294 285 282
254 251 250 249 251 253 255 256 256 258 259 258 258 258 256 257 260 265 271 278 282 286 290 295 300 304 311 317 320 322 319 318 320 319 316 315 316 318 326 322 318 314 307 300 295
258 256 255 254 253 253 254 257 260 261 261 261 260 260 261 260 259 260 260 266 272 277 283 287 291 295 299 303 307 309 312 314 314 316 315 311 315 313 322 319 317 313 307 302 298
258 257 256 255 256 257 257 256 258 261 263 265 265 263 263 266 265 265 265 265 268 272 278 283 286 289 292 293 297 302 304 308 310 310 308 306 318 307 304 310 310 311 312 308 301
258 258 258 256 256 256 256 257 259 260 261 263 266 266 266 268 271 270 270 272 272 272 274 278 283 286 289 292 294 296 299 302 305 307 304 303 312 303 301 304 307 307 312 313 310
257 258 259 259 259 260 260 260 260 261 262 263 266 268 268 269 272 275 276 276 277 278 278 280 284 284 288 292 293 295 296 299 301 302 302 302 304 298 300 302 307 306 309 312 306
258 258 259 260 261 262 263 264 264 263 263 265 266 267 268 270 272 272 275 276 278 279 280 280 281 285 289 287 292 294 294 296 301 298 298 299 303 304 300 302 303 303 306 306 305
258 258 259 260 261 262 262 263 264 265 265 265 266 266 268 270 272 274 273 275 277 279 281 280 280 288 280 287 290 291 293 298 300 299 298 299 301 305 304 303 302 305 302 306 307
259 260 261 262 261 262 263 265 266 266 263 264 266 268 268 271 273 275 277 276 275 278 278 279 280 281 283 285 288 291 294 298 297 298 297 299 300 298 302 308 301 298 301 305 304
260 260 261 262 264 264 264 265 265 266 267 261 266 268 271 273 276 278 277 276 276 275 275 275 282 281 284 286 289 290 294 295 296 296 296 299 299 298 300 305 300 298 296 305 301
260 260 262 263 264 266 266 267 268 268 268 267 261 265 270 275 277 279 277 277 274 274 274 275 277 279 280 283 287 288 291 293 294 295 296 298 299 298 303 307 307 307 303 299 299
261 261 260 262 265 265 266 267 267 268 269 271 272 269 267 270 276 276 275 276 277 274 274 276 276 276 279 282 283 287 289 290 291 292 293 295 296 297 304 309 311 311 308 307 301
260 262 262 262 262 263 264 264 266 265 263 268 273 276 275 274 275 277 276 275 273 273 274 277 278 279 281 283 285 286 289 290 289 291 289 297 294 293 304 307 306 314 309 308 302
258 260 262 263 262 261 262 262 263 261 265 268 271 275 277 277 274 273 274 274 274 274 276 275 275 277 279 281 283 285 287 287 288 290 289 295 294 297 303 302 306 307 305 309 301
257 258 259 260 262 262 260 259 259 263 264 266 270 274 275 275 275 276 275 275 275 277 278 278 276 278 280 280 282 282 281 282 287 290 294 293 292 298 296 297 307 310 312 312 305
258 258 259 260 259 259 260 261 266 267 265 267 268 267 269 272 274 274 274 274 276 279 281 284 280 280 277 278 280 282 283 286 286 287 288 289 295 296 294 301 310 306 313 311 303
260 260 260 261 260 259 257 262 263 265 270 271 270 270 270 272 273 273 273 275 276 275 275 276 278 279 280 280 280 284 284 284 286 286 285 293 296 292 297 309 311 308 313 311 299
264 264 264 259 260 261 260 263 265 266 267 268 270 270 270 271 272 273 274 275 277 279 281 281 280 281 280 281 281 282 279 282 283 283 288 293 289 296 309 312 309 306 307 304 297
257 266 267 267 258 260 260 262 263 265 263 267 268 269 271 272 271 270 271 274 277 276 275 276 274 273 281 279 274 270 277 278 280 286 285 281 286 302 310 305 312 303 304 304 295
259 261 262 260 257 261 260 262 260 261 265 267 268 268 267 270 271 270 274 275 273 275 273 274 275 278 276 277 280 283 283 282 284 283 280 279 291 309 304 312 310 299 300 294 290
261 255 252 256 258 262 262 263 261 259 262 266 268 268 268 269 272 272 273 273 271 271 273 276 275 273 274 279 281 280 279 281 283 282 286 290 300 297 309 311 304 295 291 288 287
257 260 262 255 259 261 263 260 256 261 267 264 264 269 271 271 272 272 271 268 268 272 274 268 269 275 280 279 275 275 277 282 282 286 290 297 296 302 315 307 298 289 288 286 287
259 263 261 263 259 254 254 254 252 264 262 269 271 268 269 272 270 272 275 275 274 271 270 270 274 277 277 279 271 274 278 278 284 288 286 290 292 306 302 301 299 294 288 289 292
263 265 265 258 259 260 256 255 259 261 261 263 270 269 269 272 275 271 271 270 270 274 276 272 275 275 272 275 271 269 284 284 282 282 287 287 297 298 296 300 296 290 290 290 292
Height
5895 5896 5896 5896 5897 5897 5897 5897 5897 5896 5895 5895 5894 5894 5893 5892 5891 5890 5889 5887 5886 5884 5882 5880 5878 5876 5873 5871 5868 5867 5866 5865 5864 5863 5862 5859 5858 5857 5855 5854 5852 5852 5851 5850 5850
5892 5892 5893 5893 5894 5894 5895 5895 5895 5894 5894 5892 5892 5892 5891 5890 5890 5889 5888 5886 5884 5882 5882 5880 5877 5875 5873 5870 5868 5866 5864 5863 5862 5860 5859 5857 5855 5853 5852 5850 5848 5847 5846 5845 5844
5888 5888 5889 5889 5890 5890 5891 5891 5891 5891 5891 5890 5890 5890 5889 5888 5887 5886 5885 5884 5883 5881 5879 5878 5876 5874 5872 5870 5868 5865 5863 5861 5859 5857 5856 5854 5852 5850 5848 5846 5845 5843 5842 5841 5839
5882 5883 5884 5885 5885 5885 5885 5886 5886 5886 5886 5886 5886 5885 5885 5885 5885 5883 5882 5881 5880 5878 5877 5875 5873 5872 5870 5868 5866 5864 5861 5859 5857 5854 5853 5851 5849 5848 5845 5842 5840 5839 5837 5836 5834
5877 5878 5878 5879 5879 5879 5880 5880 5881 5880 5881 5881 5880 5880 5880 5880 5880 5879 5879 5878 5877 5875 5874 5872 5871 5869 5866 5865 5863 5860 5858 5856 5853 5851 5849 5847 5845 5843 5841 5838 5836 5834 5833 5831 5829
5870 5871 5872 5872 5872 5873 5873 5874 5874 5875 5875 5875 5875 5875 5874 5874 5874 5874 5873 5873 5872 5871 5870 5868 5867 5865 5863 5861 5859 5856 5853 5851 5849 5847 5845 5843 5841 5838 5837 5835 5832 5831 5828 5826 5823
5862 5863 5864 5865 5866 5866 5866 5867 5867 5867 5868 5868 5869 5869 5869 5869 5868 5868 5867 5867 5866 5865 5864 5863 5861 5860 5858 5857 5855 5852 5850 5846 5844 5842 5840 5839 5837 5833 5832 5832 5829 5827 5823 5821 5817
5854 5854 5855 5856 5856 5857 5857 5859 5860 5859 5860 5860 5860 5861 5862 5863 5862 5861 5861 5861 5860 5859 5858 5857 5855 5854 5852 5851 5849 5847 5846 5843 5838 5835 5832 5832 5836 5828 5824 5825 5822 5819 5816 5813 5810
5846 5847 5847 5848 5849 5850 5850 5851 5851 5852 5852 5853 5853 5852 5854 5855 5856 5855 5855 5855 5853 5852 5852 5850 5849 5848 5847 5845 5843 5841 5838 5837 5834 5829 5825 5823 5828 5825 5821 5817 5817 5812 5809 5806 5802
5838 5839 5840 5840 5841 5842 5842 5842 5843 5843 5844 5844 5844 5845 5846 5846 5846 5847 5847 5847 5846 5845 5845 5843 5840 5841 5841 5836 5835 5833 5830 5829 5828 5821 5819 5814 5817 5820 5815 5812 5811 5807 5802 5799 5795
5829 5830 5830 5832 5833 5834 5835 5834 5835 5834 5835 5835 5834 5834 5835 5837 5839 5839 5838 5837 5837 5837 5835 5833 5832 5835 5829 5827 5826 5824 5821 5819 5819 5814 5805 5807 5806 5808 5810 5806 5803 5800 5794 5789 5785
5818 5820 5821 5821 5823 5823 5825 5825 5824 5823 5824 5824 5824 5825 5827 5828 5829 5829 5829 5828 5827 5827 5826 5824 5825 5824 5822 5819 5817 5814 5811 5811 5807 5803 5796 5794 5794 5796 5797 5799 5794 5792 5786 5781 5775
5809 5809 5810 5811 5812 5813 5814 5815 5814 5812 5809 5814 5814 5816 5820 5820 5820 5822 5820 5818 5817 5817 5816 5813 5816 5815 5812 5810 5808 5804 5802 5799 5794 5791 5787 5779 5774 5782 5790 5788 5786 5782 5777 5773 5766
5796 5799 5799 5800 5802 5802 5802 5803 5803 5803 5795 5795 5805 5807 5810 5811 5809 5812 5810 5808 5806 5806 5805 5804 5806 5805 5803 5802 5798 5792 5794 5788 5784 5777 5771 5774 5751 5758 5770 5776 5771 5771 5768 5764 5758
5785 5786 5787 5788 5789 5790 5792 5792 5791 5793 5780 5781 5782 5797 5802 5803 5801 5802 5800 5798 5797 5796 5795 5796 5796 5795 5793 5792 5789 5783 5781 5778 5773 5767 5757 5762 5754 5741 5751 5758 5760 5756 5754 5749 5743
5772 5774 5775 5775 5776 5777 5778 5779 5781 5780 5759 5770 5774 5780 5788 5792 5792 5789 5789 5788 5787 5785 5785 5786 5784 5783 5782 5780 5778 5774 5769 5766 5759 5756 5742 5752 5745 5727 5742 5743 5744 5743 5737 5736 5728
5758 5761 5762 5762 5763 5764 5764 5766 5766 5753 5755 5763 5767 5769 5772 5777 5778 5778 5777 5776 5775 5774 5774 5774 5773 5771 5770 5768 5765 5763 5760 5751 5744 5743 5732 5733 5725 5725 5730 5729 5732 5730 5726 5723 5715
5743 5746 5748 5748 5748 5748 5747 5750 5743 5740 5747 5752 5754 5757 5759 5761 5762 5763 5762 5761 5763 5762 5760 5758 5757 5760 5757 5756 5752 5748 5748 5745 5734 5728 5719 5719 5708 5712 5710 5712 5719 5716 5713 5709 5702
5726 5730 5735 5732 5732 5732 5732 5730 5728 5735 5735 5738 5741 5741 5745 5748 5748 5747 5747 5748 5749 5750 5748 5744 5741 5742 5741 5739 5738 5735 5732 5731 5723 5720 5713 5706 5701 5697 5696 5702 5706 5702 5699 5695 5687
5709 5711 5718 5715 5714 5713 5714 5714 5715 5724 5724 5725 5726 5729 5728 5732 5733 5732 5731 5733 5734 5735 5731 5725 5723 5726 5726 5724 5721 5723 5720 5713 5713 5705 5696 5690 5685 5677 5683 5694 5690 5685 5683 5681 5673
5688 5687 5697 5701 5693 5692 5695 5699 5702 5708 5712 5711 5708 5710 5714 5715 5717 5716 5716 5718 5719 5721 5716 5708 5708 5710 5709 5707 5708 5704 5700 5702 5698 5690 5687 5684 5662 5667 5675 5678 5677 5672 5672 5667 5657
5670 5668 5673 5674 5674 5673 5679 5684 5690 5689 5694 5692 5691 5694 5695 5699 5698 5696 5698 5703 5706 5704 5696 5692 5686 5687 5693 5687 5685 5684 5688 5687 5678 5676 5668 5662 5640 5673 5672 5668 5669 5657 5655 5649 5641
5647 5650 5651 5650 5646 5653 5664 5666 5669 5672 5676 5676 5674 5677 5682 5679 5675 5678 5685 5691 5686 5682 5679 5674 5664 5665 5673 5670 5668 5672 5673 5671 5666 5660 5644 5643 5634 5655 5650 5653 5651 5643 5639 5631 5625
5628 5623 5628 5621 5631 5633 5640 5643 5648 5655 5656 5653 5655 5657 5658 5658 5663 5659 5664 5665 5666 5664 5663 5658 5646 5646 5649 5658 5652 5651 5653 5658 5654 5637 5626 5619 5621 5636 5644 5640 5633 5622 5622 5616 5608
5605 5598 5603 5602 5612 5615 5619 5625 5629 5630 5633 5632 5632 5638 5641 5636 5642 5641 5647 5643 5644 5645 5643 5636 5628 5629 5628 5637 5630 5628 5637 5640 5632 5627 5610 5612 5603 5616 5625 5613 5613 5602 5599 5595 5589
5581 5582 5581 5581 5591 5590 5593 5600 5607 5618 5612 5615 5614 5619 5618 5617 5624 5623 5622 5623 5620 5621 5622 5619 5610 5610 5604 5616 5611 5603 5621 5622 5623 5616 5604 5599 5592 5613 5602 5598 5593 5586 5581 5575 5573
5561 5561 5561 5557 5559 5563 5569 5579 5585 5597 5591 5596 5599 5597 5596 5605 5604 5598 5596 5597 5598 5598 5601 5596 5593 5591 5580 5598 5584 5573 5604 5608 5604 5597 5596 5579 5586 5591 5587 5581 5573 5565 5564 5560 5558